Skip Page Navigation
NASA JPL Caltech
NASA Logo - Jet Propulsion Laboratory + View the NASA Portal
+ Near-Earth Object (NEO) Program
Search JPL
JPL Home Earth Solar System Stars & Galaxies Technology
JPL Solar System Dynamics
BODIES ORBITS EPHEMERIDES TOOLS PHYSICAL DATA DISCOVERY FAQ SITE MAP
JPL Small-Body Database Browser
Search: [ help ]  
207398 (2006 AS2)
Classification: Apollo [NEO, PHA]          SPK-ID: 2207398
Ephemeris | Orbit Diagram | Orbital Elements | Physical Parameters | Discovery Circumstances | Close-Approach Data ]

[ hide orbit diagram ]
Orbit Diagram
Note: Make sure you have Java enabled on your browser to see the applet. This applet is provided as a 3D orbit visualization tool. The applet was implemented using 2-body methods, and hence should not be used for determining accurate long-term trajectories (over several years or decades) or planetary encounter circumstances. For accurate long-term ephemerides, please instead use our Horizons system.
Orbit Viewer

Additional Notes: the orbits shown in the applet are color coded. The planets are white lines, and the asteroid/comet is a blue line. The bright white line indicates the portion of the orbit that is above the ecliptic plane, and the darker portion is below the ecliptic plane. Likewise for the asteroid/comet orbit, the light blue indicates the portion above the ecliptic plane, and the dark blue the portion below the ecliptic plane.

Orbit Viewer applet originally written and kindly provided by Osamu Ajiki (AstroArts), and further modified by Ron Baalke (JPL).


Orbital Elements at Epoch 2456400.5 (2013-Apr-18.0) TDB
Reference: JPL 58 (heliocentric ecliptic J2000)
 Element Value Uncertainty (1-sigma)   Units 
e .6389127139558665 2.1906e-08  
a 2.092989097534179 9.9809e-09 AU
q .7557517529485769 4.5057e-08 AU
i 2.593184725365109 6.5456e-06 deg
node 126.0091262809683 3.0062e-05 deg
peri 79.5695574000345 3.195e-05 deg
M 123.0600912995935 3.6444e-06 deg
tp 2456022.437494479756
(2012-Apr-04.93749448)
8.5188e-06 JED
period 1105.984081028691
3.03
7.9112e-06
2.166e-08
d
yr
n .3255019725647036 2.3283e-09 deg/d
Q 3.43022644211978 1.6358e-08 AU
  Orbit Determination Parameters
   # obs. used (total)      357  
   # delay obs. used      7  
   # Doppler obs. used      2  
   data-arc span      3282 days (8.99 yr)  
   first obs. used      2003-08-23  
   last obs. used      2012-08-17  
   planetary ephem.      DE405  
   SB-pert. ephem.      SB405-CPV-2  
   condition code      0  
   fit RMS      .50628  
   data source      ORB  
   producer      Otto Matic  
   solution date      2013-Apr-29 15:40:36  

Additional Information
 Earth MOID = .0101182 AU 
 T_jup = 3.461 
[ show covariance matrix ]

Ephemeris | Orbit Diagram | Orbital Elements | Physical Parameters | Discovery Circumstances | Close-Approach Data ]

Physical Parameter Table
Parameter Symbol Value Units Sigma Reference Notes
absolute magnitude H 20.37 mag .38394 58 autocmod 2.5c
rotation period rot_per 4.480 h n/a Asteroid Lightcurve DataBase (Rev. 2013-May-01) Published Reference List:
[Warner, B.D. (2009) Minor Planet Bul. 36, 109-116.]

207398 (2006 AS2)          Discovered 2006-Jan-05 by Mt. Lemmon Survey at Mount Lemmon (G96)
Reference: 20090209/Numbers.arcLast Updated: 2009-02-11

[ show close-approach data ]
Ephemeris | Orbit Diagram | Orbital Elements | Physical Parameters | Discovery Circumstances | Close-Approach Data ]
ABOUT SSD CREDITS/AWARDS PRIVACY/COPYRIGHT GLOSSARY LINKS
FirstGov 2013-May-22 04:07 UT
(server date/time)  
NASA Home Page
Site Manager:   Donald K. Yeomans
Webmaster  Alan B. Chamberlin